Location: Edoum�
(0.9447°N, 10.6482°E)
Time: 16:41:23
(UTC+00:00)

Genesis I - Visible Passes

Search period start: 28 September 2020 00:00
Search period end: 08 October 2020 00:00
Orbit: 504 x 518 km, 64.5° (Epoch: 27 September)

Date Brightness Start Highest point End Pass type
(mag) Time Alt. Az. Time Alt. Az. Time Alt. Az.
03 Oct 5.0 18:23:42 10° S 18:25:07 19° SSE 18:25:07 19° SSE visible
04 Oct 4.0 18:06:30 10° S 18:09:52 29° ESE 18:09:54 29° ESE visible
05 Oct 4.0 17:49:17 10° S 17:52:39 29° ESE 17:54:51 17° ENE visible
06 Oct 4.1 17:32:04 10° S 17:35:25 29° ESE 17:38:46 10° NE visible
